Вернуться в каталог

COSMOS 2251 DEB

АктивенLEO
NORAD 37998·DEBRIS·🇷🇺 Russia

Запущен Jun 16, 1993 с Plesetsk Cosmodrome

Loading…

Ближайшие Пролёты (ближайшие 24 часа)

TLE

УстаревшееSource: Space-Track

Эпоха: Sep 6, 2026, 06:41 UTC

1 37998U 93036BQZ 26249.27902583  .00000780  00000-0  22438-3 0  9993
2 37998  74.0330  95.9655 0019242 110.2764 250.0465 14.46337196681543

Отслеживайте COSMOS 2251 DEB в реальном времени с AllMySat

Download on the App Store